Lid_Strength_Index
0 1 1 1 1 1 0 0 0 1 1 1 1 0 -1 -0 -0 -1 0 -0 -0 1
1 1 1 0 1 2 2 1 1 2 2 2 1 -0 -1 -0 -0 -0 -0 -0 -0 1
3 3 1 1 2 1 2 2 2 2 2 1 1 -0 -0 -0 -0 -0 0 0 0 1
1 1 1 1 0 2 1 1 1 1 1 2 2 1 0 0 0 1 0 0 0 1
1 1 1 1 1 0 0 0 0 0 1 2 1 1 1 1 0 1 2 1 0 1
1 1 1 1 1 0 0 0 0 0 1 1 2 1 0 0 1 1 1 2 1 1
1 1 1 1 1 1 1 1 1 0 0 0 0 0 0 1 1 1 1 1 1 1
1 0 0 0 1 1 1 1 1 1 1 0 0 1 1 0 0 1 1 1 0 1
1 0 1 0 1 1 1 1 1 1 1 1 1 4 5 1 1 1 1 1 1 0
1 1 1 0 1 1 1 1 1 1 1 1 1 6 7 6 1 1 1 1 1 1
1 1 1 1 1 1 0 1 1 1 1 1 1 6 7 7 1 1 1 1 1 1
1 1 1 1 1 1 1 1 1 1 1 1 1 7 9 7 2 1 1 1 1 2
1 1 1 1 1 1 1 1 1 1 1 2 1 7 9 7 1 2 2 2 1 5
1 1 0 0 0 1 1 1 1 1 1 1 1 1 10 10 1 2 2 2 2 2